Torna al catalogo

STARLINK-3456

AttivoComunicazioniVLEO
NORAD 51759·PAYLOAD·🇺🇸 United States

Lanciato Feb 21, 2022 da Cape Canaveral Space Force Station

Loading…

Prossimi Passaggi (prossime 24 ore)

TLE

AggiornatoSource: CelesTrak SupGP

Epoca: Sep 14, 2026, 21:58 UTC

1 51759C 22016AX  26257.91576389 -.00049130  00000+0 -14526-2 0  2573
2 51759  53.1576 165.4767 0001295  92.0887  81.3160 15.34392591    15

Traccia STARLINK-3456 in tempo reale con AllMySat

Download on the App Store